Simultaneous Nadir Overpasses (SNOs) Predictions

Prediction of SNOs between FY3D and AQUA Satellite Orbit:

Table of predicted SNOs for the next 14.0 days since TLE Epoch: 12/17/2023
Index Date (FY3D) Time (FY3D) Lat,Lon (FY3D) SZA (FY3D ) Date (AQUA) Time (AQUA) Lat,Lon (AQUA) SZA (AQUA ) Distance(km) Time Diff (sec)
1 12/18/2023 03:49:31 78.99, 104.06 102.79 12/18/2023 03:49:36 78.99, 103.95 102.80 2.41 5
2 12/18/2023 04:38:54 -75.62, -72.59 81.07 12/18/2023 04:37:40 -75.41, -73.67 81.28 38.31 74
3 12/20/2023 16:44:14 79.11, -90.50 103.03 12/20/2023 16:44:27 79.11, -90.46 103.02 1.00 13
4 12/20/2023 17:34:48 -78.74, 79.49 77.48 12/20/2023 17:33:41 -78.74, 79.40 77.46 2.12 67
5 12/23/2023 05:38:54 79.11, 75.93 103.04 12/23/2023 05:39:15 79.11, 75.92 103.03 0.26 21
6 12/23/2023 06:29:32 -78.87,-115.03 77.29 12/23/2023 06:28:32 -78.86,-114.91 77.29 2.81 60
7 12/25/2023 18:33:36 79.17,-118.20 103.10 12/25/2023 18:34:04 79.17,-118.15 103.09 1.19 28
8 12/25/2023 19:24:10 -78.79, 51.88 77.43 12/25/2023 19:23:18 -78.80, 51.75 77.40 2.98 52
9 12/28/2023 07:28:15 79.14, 48.42 102.98 12/28/2023 07:28:50 79.15, 48.33 102.98 2.02 35
10 12/28/2023 08:18:52 -78.86,-142.22 77.42 12/28/2023 08:18:06 -78.86,-142.25 77.41 0.48 46
11 12/30/2023 20:22:55 79.15,-145.25 102.86 12/30/2023 20:23:36 79.16,-145.39 102.86 3.16 41



Historial Predications of SNOs between FY3D and AQUA
